CW5306 Weather Reports


time (UTC)temp
F
wind
direction
speed
knots
gust
knots
rain 1hr
in
rain 24hr
in
rain mn
in
humidity
%
barometer
mb
20260509085628 75 89 7.0 12.2 0.00 0.50 0.95 83 1019.3
20260509085358 75 96 2.6 12.2 0.00 0.50 0.95 83 1019.3
20260509084628 75 78 0.0 13.0 0.00 0.50 0.95 83 1019.3
20260509084127 75 89 5.2 13.0 0.00 0.50 0.95 83 1019.4
20260509083858 75 64 0.0 12.2 0.00 0.50 0.95 82 1019.7
20260509083127 75 54 5.2 13.0 0.00 0.50 0.95 82 1019.3
20260509082627 75 81 7.0 13.0 0.00 0.50 0.95 82 1019.3
20260509082127 75 81 4.3 9.6 0.00 0.50 0.95 82 1019.5
20260509081628 75 95 7.0 12.2 0.00 0.50 0.95 83 1019.2
20260509081122 75 76 7.0 12.2 0.00 0.50 0.95 82 1019.2
20260509080618 75 74 5.2 14.8 0.00 0.50 0.95 82 1019.2
20260509080117 75 59 5.2 14.8 0.00 0.50 0.95 82 1019.3
20260509075617 75 100 3.5 9.6 0.00 0.50 0.95 82 1019.3
20260509075349 75 119 3.5 9.6 0.00 0.50 0.95 82 1019.2
20260509074617 75 79 4.3 12.2 0.00 0.50 0.95 81 1019.3
20260509074117 75 72 3.5 12.2 0.00 0.50 0.95 81 1019.2
20260509073618 75 76 0.0 12.2 0.00 0.50 0.95 81 1018.9
20260509073118 75 90 7.8 12.2 0.00 0.50 0.95 81 1019.0
20260509072618 75 49 4.3 11.3 0.00 0.50 0.95 81 1019.2
20260509072119 75 56 3.5 11.3 0.00 0.50 0.95 81 1019.0
20260509071848 75 58 5.2 13.9 0.00 0.50 0.95 82 1019.3
20260509071119 75 90 6.1 13.9 0.00 0.50 0.95 82 1019.2
20260509070605 75 82 7.0 9.6 0.00 0.50 0.95 83 1019.1
20260509070054 75 92 0.0 8.7 0.00 0.50 0.95 82 1019.2
20260509065825 75 99 3.5 8.7 0.00 0.50 0.95 82 1018.7
20260509065053 75 9 0.0 7.8 0.00 0.50 0.95 82 1018.9
20260509064553 75 66 3.5 9.6 0.00 0.50 0.95 82 1018.7
20260509064054 75 54 1.7 11.3 0.00 0.50 0.95 81 1018.7
20260509063553 75 92 3.5 12.2 0.00 0.50 0.95 81 1018.7
20260509063054 75 71 5.2 12.2 0.00 0.50 0.95 81 1018.7
20260509062542 75 73 0.0 11.3 0.00 0.50 0.95 81 1018.8
20260509062030 75 87 4.3 12.2 0.00 0.50 0.95 79 1018.6
20260509061759 75 62 5.2 12.2 0.00 0.50 0.95 80 1018.8
20260509061029 75 71 0.9 11.3 0.00 0.50 0.95 80 1018.6
20260509060528 75 113 7.0 11.3 0.00 0.50 0.95 80 1018.2
20260509060030 75 76 0.0 11.3 0.00 0.50 0.95 79 1018.2
20260509055528 75 33 5.2 11.3 0.00 0.50 0.95 79 1018.1
20260509055029 75 47 5.2 11.3 0.00 0.50 0.95 79 1018.1
20260509054529 75 80 0.0 9.6 0.00 0.50 0.95 82 1018.0
20260509054029 75 59 4.3 11.3 0.00 0.50 0.95 81 1018.2
20260509053529 75 76 6.1 11.3 0.00 0.50 0.95 81 1018.1
20260509053029 75 60 5.2 13.0 0.00 0.50 0.95 80 1018.2
20260509052529 76 84 6.1 13.0 0.00 0.50 0.95 81 1017.8
20260509052259 76 78 0.0 9.6 0.00 0.50 0.95 80 1018.0
20260509051529 76 95 6.1 12.2 0.00 0.50 0.95 79 1017.9
20260509051300 76 40 4.3 12.2 0.00 0.50 0.95 80 1017.7
20260509050531 76 73 4.3 11.3 0.00 0.50 0.95 78 1017.9
20260509050030 76 59 5.2 8.7 0.00 0.50 0.95 78 1017.8
20260509045759 76 88 5.2 7.0 0.00 0.50 0.95 77 1017.8
20260509045028 76 99 1.7 5.2 0.00 0.50 0.95 77 1017.7
20260509044528 76 85 0.0 7.8 0.00 0.50 0.95 77 1017.5
20260509044028 76 99 0.0 7.8 0.00 0.50 0.95 77 1017.5
20260509043529 76 86 0.0 9.6 0.00 0.50 0.95 77 1017.6
20260509043029 76 84 5.2 9.6 0.00 0.50 0.95 77 1017.3
20260509042530 76 65 0.0 7.8 0.00 0.50 0.95 77 1017.4
20260509042028 76 97 0.0 7.0 0.00 0.50 0.95 76 1017.7
20260509041529 76 82 4.3 7.0 0.00 0.50 0.95 76 1017.7
20260509041029 76 75 0.0 7.0 0.00 0.50 0.95 76 1017.8
20260509040528 76 98 0.9 7.8 0.00 0.50 0.95 75 1017.7
20260509040028 76 112 0.0 8.7 0.00 0.50 0.95 76 1017.5
20260509035528 76 103 3.5 8.7 0.00 0.50 0.95 75 1017.6
20260509035259 76 108 0.0 9.6 0.00 0.50 0.95 74 1017.3
20260509034529 77 37 3.5 11.3 0.00 0.50 0.95 76 1017.1
20260509034029 77 78 5.2 11.3 0.00 0.50 0.95 76 1017.3
20260509033759 77 63 0.0 8.7 0.00 0.50 0.95 75 1017.1
20260509033027 77 91 1.7 9.6 0.00 0.50 0.95 75 1016.9
20260509032527 77 96 2.6 12.2 0.00 0.50 0.95 75 1016.9
20260509032028 77 57 0.0 12.2 0.00 0.50 0.95 74 1016.9
20260509031526 77 13 0.0 11.3 0.00 0.50 0.95 74 1017.1
20260509031026 78 94 8.7 9.6 0.00 0.50 0.95 73 1017.0
20260509030531 77 63 0.0 11.3 0.00 0.50 0.95 74 1017.1
20260509030525 78 105 0.0 11.3 0.00 0.50 0.95 73 1017.2
20260509025523 77 93 0.9 9.6 0.00 0.50 0.95 73 1017.1
20260509025024 77 86 0.0 11.3 0.00 0.50 0.95 73 1017.0
20260509024524 77 64 6.1 11.3 0.00 0.50 0.95 73 1017.3
20260509024010 77 68 0.0 9.6 0.00 0.50 0.95 75 1017.5
20260509023510 77 58 2.6 11.3 0.00 0.50 0.95 75 1017.3
20260509023011 77 53 2.6 11.3 0.00 0.50 0.95 75 1017.2
20260509022511 77 26 1.7 12.2 0.00 0.50 0.95 75 1017.2
20260509022011 78 70 0.0 12.2 0.00 0.50 0.95 75 1017.2
20260509021511 78 90 5.2 9.6 0.00 0.50 0.95 74 1017.3
20260509021011 78 87 7.8 12.2 0.00 0.50 0.95 74 1017.0
20260509020511 78 87 0.0 12.2 0.00 0.50 0.95 74 1016.9
20260509020010 78 101 3.5 9.6 0.00 0.50 0.95 73 1017.1
20260509015510 79 44 5.2 9.6 0.00 0.50 0.95 71 1017.0
20260509015010 79 73 0.0 11.3 0.00 0.50 0.95 72 1017.1
20260509014509 79 76 3.5 11.3 0.00 0.50 0.95 73 1016.9
20260509014009 78 89 3.5 11.3 0.00 0.50 0.95 74 1017.1
20260509013510 78 94 1.7 11.3 0.00 0.50 0.95 73 1016.8
20260509013010 78 76 2.6 11.3 0.00 0.50 0.95 73 1017.1
20260509012509 79 57 0.0 9.6 0.00 0.50 0.95 72 1016.7
20260509012009 79 94 7.0 9.6 0.00 0.50 0.95 72 1016.7
20260509011509 79 60 6.1 9.6 0.00 0.50 0.95 72 1017.1
20260509011009 78 49 5.2 8.7 0.00 0.50 0.95 74 1017.0
20260509010747 79 67 3.5 11.3 0.00 0.50 0.95 74 1016.9
20260509010510 79 67 7.0 8.7 0.00 0.50 0.95 73 1017.1
20260509005510 79 49 5.2 11.3 0.00 0.50 0.95 72 1016.8
20260509005009 79 77 5.2 11.3 0.00 0.50 0.95 73 1016.9
20260509004741 80 81 2.6 11.3 0.00 0.50 0.95 72 1016.9
20260509004009 80 63 7.0 8.7 0.00 0.50 0.95 72 1017.0
20260509003510 80 106 2.6 9.6 0.00 0.50 0.95 72 1017.1
20260509003010 79 96 6.1 9.6 0.00 0.50 0.95 73 1017.1
20260509002510 79 62 3.5 8.7 0.00 0.50 0.95 75 1017.3
20260509002240 79 98 4.3 11.3 0.00 0.50 0.95 74 1017.3
20260509001740 78 46 0.0 11.3 0.00 0.50 0.95 75 1017.3
20260509001009 78 71 0.9 9.6 0.00 0.50 0.95 74 1017.3
20260509000509 79 89 6.1 9.6 0.00 0.50 0.95 73 1017.4
20260509000009 79 89 0.9 8.7 0.00 0.50 0.95 72 1017.4
20260508235509 79 114 4.3 11.3 0.00 0.50 0.95 73 1017.4
20260508235008 79 71 4.3 11.3 0.00 0.50 0.95 73 1017.4
20260508234740 79 79 7.0 11.3 0.00 0.50 0.95 74 1017.3
20260508234009 79 60 2.6 9.6 0.00 0.50 0.95 74 1017.4
20260508233739 79 98 4.3 9.6 0.00 0.50 0.95 74 1017.6
20260508233239 79 41 4.3 8.7 0.00 0.50 0.95 75 1017.6
20260508232509 79 86 5.2 11.3 0.00 0.50 0.95 74 1017.7
20260508232008 79 73 7.8 11.3 0.00 0.50 0.95 72 1017.7
20260508231740 79 66 1.7 9.6 0.00 0.50 0.95 73 1017.8
20260508231239 80 58 3.5 9.6 0.00 0.50 0.95 75 1017.9
20260508230509 80 87 0.0 11.3 0.00 0.50 0.95 73 1018.0
20260508230008 79 36 3.5 11.3 0.00 0.50 0.95 75 1017.8
20260508225509 79 75 4.3 12.2 0.00 0.50 0.95 76 1017.7
20260508225009 79 81 6.1 12.2 0.00 0.50 0.95 75 1017.8
20260508224508 80 85 0.0 11.3 0.00 0.50 0.95 75 1018.0
20260508224008 80 50 2.6 9.6 0.00 0.50 0.95 75 1018.1
20260508223509 80 88 0.9 11.3 0.00 0.50 0.95 76 1018.2
20260508223009 79 74 6.1 11.3 0.00 0.50 0.95 76 1018.1
20260508222509 78 52 0.9 12.2 0.00 0.50 0.95 76 1018.3
20260508222240 78 89 7.0 12.2 0.00 0.50 0.95 75 1018.3
20260508221508 79 65 7.0 11.3 0.00 0.50 0.95 75 1018.1
20260508221011 79 65 0.0 8.7 0.00 0.50 0.95 77 1018.3
20260508220739 79 121 2.6 9.6 0.00 0.50 0.95 76 1018.3
20260508220008 79 82 5.2 11.3 0.00 0.50 0.95 76 1018.3
20260508215740 78 63 3.5 12.2 0.00 0.50 0.95 76 1018.4
20260508215009 78 83 6.1 12.2 0.00 0.50 0.95 76 1018.4
20260508214509 78 92 7.8 11.3 0.00 0.50 0.95 77 1018.4
20260508214009 78 82 7.0 9.6 0.00 0.50 0.95 77 1018.4
20260508213509 77 117 0.0 7.0 0.00 0.50 0.95 80 1018.4
20260508213009 77 37 0.0 7.8 0.00 0.50 0.95 79 1018.6
20260508212508 77 87 0.0 7.8 0.00 0.50 0.95 78 1018.7
20260508212008 77 47 0.0 7.8 0.00 0.50 0.95 79 1019.0
20260508211509 77 70 0.0 7.8 0.00 0.50 0.95 78 1018.9
20260508211241 77 75 0.0 7.0 0.00 0.50 0.95 77 1018.7
20260508210509 77 66 0.0 7.0 0.00 0.50 0.95 78 1019.1
20260508210009 78 64 0.0 5.2 0.00 0.50 0.95 79 1019.2
20260508205509 78 67 0.0 5.2 0.00 0.50 0.95 77 1019.2
20260508205008 78 23 0.0 4.3 0.00 0.50 0.95 79 1019.1
20260508204508 78 118 0.0 4.3 0.00 0.50 0.95 79 1019.5
20260508204008 77 60 0.0 3.5 0.00 0.50 0.95 78 1019.3
20260508203508 77 198 0.0 0.0 0.00 0.50 0.95 80 1019.3
20260508203008 77 198 0.0 0.0 0.00 0.50 0.95 82 1019.4
20260508202509 76 208 0.0 1.7 0.00 0.50 0.95 83 1019.4
20260508202009 76 208 0.0 1.7 0.00 0.50 0.95 84 1019.4
20260508201509 75 208 0.0 0.0 0.00 0.50 0.95 85 1019.5
20260508201009 75 223 0.0 0.0 0.00 0.50 0.95 85 1019.6
20260508200508 75 223 0.0 0.0 0.00 0.50 0.95 88 1019.7
20260508200009 74 223 0.0 0.0 0.00 0.50 0.95 88 1019.3
20260508195508 74 223 0.0 0.0 0.00 0.50 0.95 89 1019.6
20260508195009 74 223 0.0 0.0 0.00 0.50 0.95 89 1019.4
20260508194727 74 223 0.0 0.0 0.00 0.50 0.95 89 1019.6
20260508193956 73 223 0.0 0.9 0.00 0.50 0.95 89 1019.6
20260508193447 73 223 0.0 0.9 0.00 0.50 0.95 89 1019.6
20260508192945 73 223 0.0 0.0 0.00 0.50 0.95 90 1019.7
20260508192445 73 233 0.0 0.0 0.00 0.50 0.95 92 1019.4
20260508191947 73 233 0.0 0.0 0.00 0.50 0.95 92 1019.3
20260508191446 72 233 0.0 1.7 0.00 0.50 0.95 93 1019.3
20260508190944 72 233 0.0 1.7 0.00 0.50 0.95 92 1019.3
20260508190445 72 233 0.0 0.0 0.00 0.50 0.95 93 1019.3
20260508185945 71 233 0.0 0.0 0.00 0.50 0.95 93 1019.1
20260508185446 71 233 0.0 0.0 0.00 0.50 0.95 93 1019.4
20260508184944 71 233 0.0 0.0 0.00 0.50 0.95 93 1019.4
20260508184444 71 233 0.0 0.0 0.00 0.50 0.95 93 1019.3
20260508183944 70 233 0.0 0.0 0.00 0.50 0.95 93 1019.2
20260508183433 70 233 0.0 0.0 0.00 0.50 0.95 93 1019.0
20260508182933 70 233 0.0 0.0 0.01 0.50 0.95 93 1019.2
20260508182433 69 232 0.0 0.0 0.01 0.50 0.95 93 1019.2
20260508181932 69 232 0.0 0.0 0.02 0.49 0.95 93 1019.6
20260508181433 69 232 0.0 0.0 0.02 0.49 0.95 93 1019.2
20260508180932 69 238 0.0 0.9 0.02 0.49 0.95 93 1019.4
20260508180432 69 243 0.0 3.5 0.02 0.49 0.95 93 1019.3
20260508175921 69 220 0.0 3.5 0.02 0.49 0.95 93 1019.5
20260508175653 68 224 0.0 0.0 0.02 0.49 0.95 93 1019.5
20260508174920 68 225 0.0 0.0 0.02 0.49 0.95 93 1019.3
20260508174653 68 225 0.0 0.0 0.02 0.49 0.95 93 1019.3
20260508173920 68 225 0.0 0.0 0.02 0.49 0.95 93 1019.3
20260508173426 68 235 0.0 0.0 0.04 0.49 0.94 93 1019.4
20260508173420 68 225 0.0 0.0 0.03 0.49 0.95 93 1019.4
20260508172421 67 232 0.0 0.0 0.03 0.48 0.94 93 1019.4
20260508171921 67 239 0.0 0.0 0.02 0.47 0.93 93 1019.4
20260508171420 67 226 0.0 0.0 0.03 0.47 0.93 92 1019.2
20260508170927 67 249 0.0 0.0 0.06 0.47 0.93 92 1018.8
20260508170921 67 226 0.0 0.0 0.04 0.47 0.93 92 1018.9
20260508165909 67 251 0.0 0.0 0.12 0.47 0.93 92 1018.9
20260508165403 67 245 0.0 0.0 0.13 0.47 0.93 92 1018.8
20260508164857 67 250 0.0 0.0 0.16 0.47 0.93 92 1018.9
20260508164357 67 239 0.0 0.0 0.22 0.47 0.93 92 1018.7
20260508163857 67 239 0.0 0.0 0.25 0.47 0.93 92 1018.8
20260508163358 67 239 0.0 0.0 0.31 0.46 0.92 92 1018.7
20260508162851 67 239 0.0 0.0 0.35 0.45 0.91 92 1018.9
20260508162351 67 235 0.0 0.0 0.45 0.45 0.91 92 1018.7
20260508161851 67 236 0.0 0.0 0.44 0.44 0.90 92 1018.6
20260508161346 67 239 0.0 5.2 0.44 0.44 0.90 92 1018.3
20260508160845 67 289 0.0 5.2 0.44 0.44 0.89 92 1018.2
20260508160344 67 224 3.5 4.3 0.41 0.41 0.87 92 1018.1
20260508160340 67 279 0.0 4.3 0.35 0.35 0.81 92 1018.1
20260508155330 67 282 1.7 7.0 0.34 0.34 0.80 92 1018.0
20260508154821 67 210 0.0 7.8 0.31 0.31 0.77 92 1017.9
20260508154311 67 225 1.7 7.8 0.25 0.25 0.70 92 1018.0
20260508153809 67 212 1.7 5.2 0.22 0.22 0.68 92 1017.7
20260508153307 67 237 0.0 7.0 0.14 0.14 0.61 92 1017.9
20260508152803 67 242 2.6 7.0 0.07 0.07 0.54 92 1017.8
20260508152242 67 0.0 0.0 0.00 0.00 0.14 92
20260508144516 68 252 3.5 4.3 0.09 0.14 0.14 91 1017.3
20260508143946 68 202 0.0 5.2 0.10 0.14 0.14 91 1017.6
20260508143433 68 224 0.0 5.2 0.10 0.14 0.14 91 1017.4
20260508142934 68 212 0.0 7.8 0.10 0.14 0.14 91 1017.4
20260508142434 69 235 0.0 7.8 0.10 0.14 0.14 90 1017.4
20260508141923 69 201 0.0 5.2 0.09 0.13 0.14 91 1017.3
20260508141422 68 243 0.0 7.8 0.08 0.12 0.13 89 1017.3
20260508140922 68 265 0.9 7.8 0.08 0.12 0.12 89 1017.5
20260508140422 68 321 0.0 0.0 0.06 0.10 0.10 88 1017.5
20260508135922 69 205 0.0 9.6 0.04 0.08 0.09 88 1017.8
20260508135422 69 305 0.0 9.6 0.02 0.06 0.07 88 1017.6
20260508134921 69 222 0.9 7.8 0.02 0.06 0.06 88 1017.8
20260508134409 69 135 0.0 7.8 0.02 0.04 0.04 88 1017.7
20260508134140 70 200 0.0 4.3 0.02 0.04 0.04 88 1017.7
20260508133410 70 294 0.0 4.3 0.02 0.04 0.04 88 1017.5
20260508133141 71 216 0.0 7.8 0.02 0.04 0.04 88 1017.6
20260508132409 71 225 0.0 7.8 0.02 0.04 0.04 88 1017.7
20260508131910 72 223 0.0 4.3 0.02 0.04 0.04 88 1017.7
20260508131410 72 233 0.0 4.3 0.02 0.04 0.04 88 1017.8
20260508130857 73 191 0.0 5.2 0.02 0.04 0.04 88 1017.7
20260508130358 73 115 0.0 8.7 0.02 0.04 0.04 88 1017.8
20260508125859 73 80 0.0 8.7 0.03 0.04 0.04 89 1017.6
20260508125628 73 70 0.0 7.8 0.04 0.04 0.04 89 1017.4
20260508124858 73 56 0.0 9.6 0.03 0.03 0.03 88 1017.3
20260508124358 73 75 4.3 9.6 0.02 0.02 0.02 88 1017.5
20260508124128 73 91 0.9 9.6 0.02 0.02 0.02 88 1017.9
20260508123358 73 86 3.5 12.2 0.02 0.02 0.02 88 1017.7
20260508122839 73 63 2.6 11.3 0.02 0.02 0.02 88 1018.0
20260508122334 73 59 2.6 12.2 0.02 0.02 0.02 88 1017.9
20260508121821 73 62 5.2 8.7 0.02 0.02 0.02 89 1017.8
20260508121322 73 24 4.3 11.3 0.02 0.02 0.02 88 1018.2
20260508120821 73 40 2.6 12.2 0.02 0.02 0.02 88 1018.0
20260508120321 73 68 7.0 13.9 0.02 0.02 0.02 88 1018.1
20260508115821 74 71 7.0 13.9 0.00 0.00 0.01 86 1018.4
20260508115320 74 57 0.0 12.2 0.00 0.00 0.00 86 1018.4
20260508114820 74 76 3.5 11.3 0.00 0.00 0.00 85 1018.5
20260508114322 74 37 6.1 9.6 0.00 0.00 0.00 85 1018.4
20260508114308 74 76 4.3 11.3 0.00 0.00 0.00 85 1018.5
20260508114059 74 76 4.3 11.3 0.00 0.00 0.00 85 1018.5
20260508114054 74 44 7.8 9.6 0.00 0.00 0.00 85 1018.5
20260508113827 74 44 7.8 9.6 0.00 0.00 0.00 85 1018.5
20260508113539 74 76 4.3 11.3 0.00 0.00 0.00 85 1018.5
20260508112804 74 41 0.0 11.3 0.00 0.00 0.00 84 1018.6
20260508112307 74 83 5.2 13.9 0.00 0.00 0.00 83 1018.5
20260508111752 74 95 7.8 13.9 0.00 0.00 0.00 83 1018.6
20260508111252 74 73 7.8 12.2 0.00 0.00 0.00 84 1018.5
20260508111022 75 85 7.0 13.0 0.00 0.00 0.00 84 1018.4
20260508110533 74 74 6.1 13.9 0.00 0.00 0.00 83 1018.5
20260508110236 75 74 7.0 9.6 0.00 0.00 0.00 83 1018.6
20260508110029 74 64 7.0 13.9 0.00 0.00 0.00 83 1018.8
20260508105806 74 64 7.0 13.9 0.00 0.00 0.00 83 1018.8
20260508105522 75 74 7.0 9.6 0.00 0.00 0.00 83 1018.6
20260508104237 75 88 3.5 9.6 0.00 0.00 0.00 81 1018.6
20260508103453 75 71 6.1 9.6 0.00 0.00 0.00 81 1018.7
20260508103448 75 77 3.5 5.2 0.00 0.00 0.00 82 1018.7
20260508103243 75 77 3.5 5.2 0.00 0.00 0.00 82 1018.7
20260508101714 75 2 3.5 13.0 0.00 0.00 0.00 81 1018.8
20260508101011 75 93 0.0 9.6 0.00 0.00 0.00 81 1018.8
20260508100942 75 70 7.0 12.2 0.00 0.00 0.00 81 1018.8
20260508100443 75 93 0.0 9.6 0.00 0.00 0.00 81 1018.8
20260508100201 75 65 2.6 11.3 0.00 0.00 0.04 82 1018.9
20260508095935 75 65 2.6 11.3 0.00 0.00 0.04 82 1018.9
20260508095723 75 88 3.5 12.2 0.00 0.00 0.04 81 1019.1
20260508095457 75 88 3.5 12.2 0.00 0.00 0.04 81 1019.1
20260508094913 75 115 3.5 12.2 0.00 0.00 0.04 81 1019.0
20260508094407 75 0.0 0.0 0.00 0.00 0.04 80
20260508094129 75 48 4.3 12.2 0.00 0.00 0.04 81 1019.1
20260508093910 75 48 4.3 12.2 0.00 0.00 0.04 81 1019.1
20260508093300 75 76 2.6 11.3 0.00 0.00 0.04 80 1019.4
20260508091948 75 70 8.7 11.3 0.00 0.00 0.04 80 1019.5
20260508091707 75 84 0.9 3.5 0.00 0.00 0.04 80 1019.6
20260508091436 75 84 0.9 3.5 0.00 0.00 0.04 80 1019.6